Location: Unspecified
(0.0000°N, 0.0000°E)
Time: 16:28:33
(UTC+00:00)

EQUISAT - All Passes

Search period start: 18 February 2019 00:00
Search period end: 28 February 2019 00:00
Orbit: 387 x 395 km, 51.6° (Epoch: 18 February)

Date Brightness Start Highest point End Pass type
(mag) Time Alt. Az. Time Alt. Az. Time Alt. Az.
18 Feb - 04:30:02 10° SSE 04:31:51 14° SE 04:33:40 10° E visible
18 Feb - 06:05:53 10° W 06:07:50 15° NW 06:09:47 10° NNW daylight
18 Feb - 17:36:46 10° WNW 17:39:31 27° SW 17:42:17 10° S daylight
19 Feb - 05:08:16 10° SW 05:11:21 49° NW 05:14:25 10° NNE visible
19 Feb - 16:39:51 10° NNW 16:43:02 82° NE 16:46:13 10° SE daylight
20 Feb - 04:11:51 10° SSW 04:14:52 40° SE 04:17:52 10° NE visible
20 Feb - 15:43:58 10° N 15:46:32 22° NE 15:49:07 10° ESE daylight
21 Feb - 03:16:43 10° SSE 03:18:20 13° SE 03:19:57 10° E night (unlit)
21 Feb - 04:52:11 10° W 04:54:19 17° NW 04:56:26 10° NNW visible
21 Feb - 16:23:08 10° WNW 16:25:58 29° SW 16:28:48 10° S daylight
22 Feb - 03:54:39 10° SW 03:57:47 55° NW 04:00:52 10° NNE night (unlit)
22 Feb - 15:26:16 10° NNW 15:29:25 73° NE 15:32:36 10° SE daylight
23 Feb - 02:58:15 10° SSW 03:01:14 36° SE 03:04:11 10° ENE night (unlit)
23 Feb - 14:30:25 10° N 14:32:53 20° NE 14:35:20 10° ESE daylight
23 Feb - 16:07:59 10° WSW 16:08:51 11° SW 16:09:43 10° SW daylight
24 Feb - 02:03:18 10° SSE 02:04:38 12° SE 02:05:59 10° E night (unlit)
24 Feb - 03:38:20 10° W 03:40:37 18° NW 03:42:53 10° N night (unlit)
24 Feb - 15:09:21 10° WNW 15:12:14 32° SW 15:15:09 10° SSE daylight
25 Feb - 02:40:53 10° SW 02:44:02 62° NW 02:47:09 10° NNE night (unlit)
25 Feb - 14:12:30 10° NNW 14:15:38 64° NE 14:18:48 10° SE daylight
26 Feb - 01:44:31 10° SSW 01:47:25 33° SE 01:50:19 10° ENE night (unlit)
26 Feb - 13:16:43 10° N 13:19:02 19° NE 13:21:21 10° ESE daylight
26 Feb - 14:53:43 10° WSW 14:55:00 12° SW 14:56:17 10° SSW daylight
27 Feb - 00:49:49 10° SE 00:50:46 11° SE 00:51:42 10° ESE night (unlit)
27 Feb - 02:24:18 10° WSW 02:26:44 20° NW 02:29:09 10° N night (unlit)
27 Feb - 13:55:23 10° WNW 13:58:20 36° SW 14:01:18 10° SSE daylight
